Location: Unspecified
(0.0000°N, 0.0000°E)
Time: 02:22:08
(UTC+00:00)

N. Korean satellite - Pass Details

Date: 26 February 2021
Orbit: 451 x 503 km, 97.2° (Epoch: 24 February)

Event Time Altitude Azimuth Distance (km) Brightness Sun altitude
Rises 04:42:34 0° 22° (NNE) 2,522 10.4 -22.3°
Reaches altitude 10° 04:44:40 10° 30° (NNE) 1,656 9.5 -21.8°
Maximum altitude 04:48:03 41° 101° (E) 720 7.9 -21.0°
Drops below altitude 10° 04:51:29 10° 172° (S) 1,689 9.5 -20.1°
Sets 04:53:39 0° 179° (S) 2,581 10.4 -19.6°
